Roseau, MN

3:32 AM CST on February 28, 2017 (GMT -0600)
Roseau Municipal-Billberg

Weather History for KROX - April, 2013

Change the Weather History Date:

Sunday, April 14, 2013

  Actual Average Record
Temperature  
Mean Temperature 26 °F -  
Max Temperature 39 °F 50 °F 76 °F (1973)
Min Temperature 12 °F 29 °F -5 °F (1950)
Degree Days  
Heating Degree Days 40    
Moisture  
Dew Point 20 °F    
Average Humidity 70    
Maximum Humidity 86    
Minimum Humidity 56    
Precipitation  
Precipitation 0.00 in - - ()
Sea Level Pressure  
Sea Level Pressure 29.84 in    
Wind  
Wind Speed 8 mph (ENE)    
Max Wind Speed 31 mph    
Max Gust Speed 38 mph    
Visibility 10 miles    
Events Snow    
Averages and records for this station are not official NWS values.
T = Trace of Precipitation, MM = Missing Value Source: NWS Daily Summary

Daily Weather History Graph

Daily Weather History Graph

Search for Another Location

Airport or City:

Trip Planner

Search our weather history database for the weather conditions in past years. The results will help you decide how hot, cold, wet, or windy it might be!

Date:

Astronomy

Apr. 14, 2013 Rise Set
Actual Time 6:33 AM CDT 8:13 PM CDT
Civil Twilight 6:00 AM CDT 8:46 PM CDT
Nautical Twilight 5:19 AM CDT 9:27 PM CDT
Astronomical Twilight 4:35 AM CDT 10:12 PM CDT
Moon 8:55 AM CDT (4/14) No Moon Set
Length of Visible Light 14h 46m
Length of Day
13h 40m
Waxing Crescent, 17% of the Moon is Illuminated
Apr 14
Waxing Crescent
Apr 18
First Quarter
Apr 25
Full
May 2
Last Quarter
May 9
New

Hourly Weather History & Observations

Time (CDT) Temp. Windchill Dew Point Humidity Pressure Visibility Wind Dir Wind Speed Gust Speed Precip Events Conditions
12:14 AM 23.0 °F - 15.8 °F 74% 29.95 in 10.0 mi Calm Calm - N/A   Clear
12:34 AM 21.2 °F - 15.8 °F 80% 29.96 in 10.0 mi Calm Calm - N/A   Clear
12:54 AM 19.4 °F - 15.8 °F 86% 29.95 in 10.0 mi Calm Calm - N/A   Clear
1:14 AM 21.2 °F - 15.8 °F 80% 29.96 in 10.0 mi Calm Calm - N/A   Clear
1:34 AM 19.4 °F - 15.8 °F 86% 29.96 in 10.0 mi Calm Calm - N/A   Clear
1:54 AM 23.0 °F - 15.8 °F 74% 29.96 in 10.0 mi Calm Calm - N/A   Clear
2:14 AM 17.6 °F - 12.2 °F 79% 29.96 in 10.0 mi Calm Calm - N/A   Clear
2:34 AM 19.4 °F - 14.0 °F 80% 29.96 in 10.0 mi Calm Calm - N/A   Clear
2:54 AM 17.6 °F - 12.2 °F 79% 29.95 in 10.0 mi Calm Calm - N/A   Clear
3:14 AM 19.4 °F - 12.2 °F 74% 29.94 in 10.0 mi Calm Calm - N/A   Clear
3:34 AM 17.6 °F - 12.2 °F 79% 29.94 in 10.0 mi Calm Calm - N/A   Clear
3:54 AM 15.8 °F 10.2 °F 10.4 °F 79% 29.94 in 10.0 mi ENE 3.5 mph - N/A   Clear
4:14 AM 15.8 °F - 10.4 °F 79% 29.94 in 10.0 mi Calm Calm - N/A   Clear
4:34 AM 15.8 °F - 10.4 °F 79% 29.94 in 10.0 mi Calm Calm - N/A   Clear
4:54 AM 15.8 °F 10.2 °F 10.4 °F 79% 29.94 in 10.0 mi NE 3.5 mph - N/A   Clear
5:14 AM 12.2 °F 4.3 °F 6.8 °F 79% 29.95 in 10.0 mi NE 4.6 mph - N/A   Clear
5:35 AM 15.8 °F 8.6 °F 10.4 °F 79% 29.95 in 10.0 mi ENE 4.6 mph - N/A   Clear
5:54 AM 15.8 °F 7.2 °F 8.6 °F 73% 29.94 in 10.0 mi East 5.8 mph - N/A   Clear
6:14 AM 15.8 °F 7.2 °F 10.4 °F 79% 29.94 in 10.0 mi NE 5.8 mph - N/A   Clear
6:35 AM 15.8 °F - 10.4 °F 79% 29.95 in 10.0 mi Calm Calm - N/A   Clear
6:54 AM 17.6 °F - 12.2 °F 79% 29.95 in 10.0 mi Calm Calm - N/A   Clear
7:14 AM 17.6 °F 8.2 °F 10.4 °F 73% 29.95 in 10.0 mi ENE 6.9 mph - N/A   Clear
7:34 AM 15.8 °F 4.2 °F 10.4 °F 79% 29.95 in 10.0 mi ENE 9.2 mph - N/A   Clear
7:54 AM 19.4 °F 8.6 °F 12.2 °F 74% 29.94 in 10.0 mi ENE 9.2 mph - N/A   Clear
8:14 AM 19.4 °F 8.6 °F 12.2 °F 74% 29.93 in 10.0 mi ENE 9.2 mph - N/A   Clear
8:34 AM 23.0 °F 12.4 °F 14.0 °F 68% 29.92 in 10.0 mi ENE 10.4 mph - N/A   Clear
8:54 AM 23.0 °F 12.4 °F 15.8 °F 74% 29.92 in 10.0 mi ENE 10.4 mph - N/A   Clear
9:14 AM 24.8 °F 16.1 °F 15.8 °F 69% 29.93 in 10.0 mi ENE 8.1 mph - N/A   Clear
9:34 AM 24.8 °F 15.3 °F 17.6 °F 74% 29.92 in 10.0 mi ENE 9.2 mph - N/A   Clear
9:54 AM 28.4 °F 18.5 °F 17.6 °F 64% 29.91 in 10.0 mi ENE 11.5 mph - N/A   Clear
10:14 AM 28.4 °F 19.7 °F 19.4 °F 69% 29.91 in 10.0 mi ENE 9.2 mph - N/A   Clear
10:34 AM 30.2 °F 20.8 °F 21.2 °F 69% 29.90 in 10.0 mi ENE 11.5 mph - N/A   Clear
10:54 AM 33.8 °F 24.8 °F 23.0 °F 65% 29.89 in 10.0 mi ENE 12.7 mph - N/A   Clear
11:14 AM 33.8 °F 24.3 °F 21.2 °F 60% 29.89 in 10.0 mi ENE 13.8 mph - N/A   Clear
11:34 AM 33.8 °F 23.9 °F 23.0 °F 65% 29.88 in 10.0 mi ENE 15.0 mph - N/A   Clear
11:54 AM 35.6 °F 25.2 °F 23.0 °F 60% 29.86 in 10.0 mi NE 18.4 mph - N/A   Clear
12:14 PM 35.6 °F 25.2 °F 23.0 °F 60% 29.85 in 10.0 mi ENE 18.4 mph - N/A   Clear
12:34 PM 35.6 °F 25.5 °F 24.8 °F 65% 29.86 in 10.0 mi ENE 17.3 mph - N/A   Clear
12:54 PM 37.4 °F 27.8 °F 24.8 °F 60% 29.85 in 10.0 mi ENE 17.3 mph - N/A   Clear
1:14 PM 37.4 °F 27.5 °F 24.8 °F 60% 29.84 in 10.0 mi ENE 18.4 mph - N/A   Clear
1:34 PM 37.4 °F 26.4 °F 24.8 °F 60% 29.83 in 10.0 mi ENE 23.0 mph - N/A   Clear
1:55 PM 37.4 °F 26.1 °F 26.6 °F 65% 29.82 in 10.0 mi ENE 24.2 mph - N/A   Clear
2:14 PM 37.4 °F 26.1 °F 24.8 °F 60% 29.80 in 10.0 mi ENE 24.2 mph - N/A   Clear
2:34 PM 39.2 °F 28.5 °F 26.6 °F 61% 29.79 in 10.0 mi ENE 24.2 mph - N/A   Clear
2:55 PM 37.4 °F 27.5 °F 24.8 °F 60% 29.80 in 10.0 mi ENE 18.4 mph - N/A   Clear
3:14 PM 39.2 °F 29.3 °F 24.8 °F 56% 29.79 in 10.0 mi ENE 20.7 mph - N/A   Clear
3:34 PM 39.2 °F 28.7 °F 24.8 °F 56% 29.78 in 10.0 mi ENE 23.0 mph - N/A   Clear
3:54 PM 39.2 °F 29.3 °F 24.8 °F 56% 29.77 in 10.0 mi ENE 20.7 mph - N/A   Clear
4:14 PM 39.2 °F 29.0 °F 24.8 °F 56% 29.77 in 10.0 mi ENE 21.9 mph - N/A   Clear
4:34 PM 39.2 °F 29.3 °F 24.8 °F 56% 29.76 in 10.0 mi ENE 20.7 mph - N/A   Clear
4:54 PM 39.2 °F 29.6 °F 24.8 °F 56% 29.74 in 10.0 mi ENE 19.6 mph - N/A   Clear
5:14 PM 39.2 °F 29.3 °F 24.8 °F 56% 29.73 in 10.0 mi ENE 20.7 mph - N/A   Clear
5:34 PM 39.2 °F 29.3 °F 24.8 °F 56% 29.73 in 10.0 mi ENE 20.7 mph 27.6 mph N/A   Clear
5:54 PM 39.2 °F 29.3 °F 26.6 °F 61% 29.72 in 10.0 mi ENE 20.7 mph - N/A   Clear
6:14 PM 39.2 °F 30.2 °F 26.6 °F 61% 29.72 in 10.0 mi ENE 17.3 mph - N/A   Clear
6:34 PM 37.4 °F 27.5 °F 26.6 °F 65% 29.72 in 10.0 mi ENE 18.4 mph - N/A   Clear
6:54 PM 37.4 °F 27.5 °F 28.4 °F 70% 29.71 in 10.0 mi ENE 18.4 mph - N/A   Clear
7:14 PM 37.4 °F 28.2 °F 28.4 °F 70% 29.72 in 10.0 mi ENE 16.1 mph - N/A   Clear
7:34 PM 39.2 °F 30.2 °F 28.4 °F 65% 29.71 in 10.0 mi ENE 17.3 mph - N/A   Clear
7:54 PM 37.4 °F 27.5 °F 28.4 °F 70% 29.71 in 10.0 mi ENE 18.4 mph 25.3 mph N/A   Clear
8:14 PM 37.4 °F 27.8 °F 28.4 °F 70% 29.70 in 10.0 mi ENE 17.3 mph 21.9 mph N/A   Clear
8:34 PM 37.4 °F 26.6 °F 28.4 °F 70% 29.69 in 10.0 mi ENE 21.9 mph - N/A   Scattered Clouds
8:54 PM 37.4 °F 26.4 °F 28.4 °F 70% 29.70 in 10.0 mi ENE 23.0 mph 27.6 mph N/A   Scattered Clouds
9:15 PM 37.4 °F 26.9 °F 28.4 °F 70% 29.71 in 10.0 mi ENE 20.7 mph - N/A   Scattered Clouds
9:34 PM 37.4 °F 27.8 °F 28.4 °F 70% 29.72 in 10.0 mi East 17.3 mph 29.9 mph N/A   Scattered Clouds
9:54 PM 37.4 °F 24.8 °F 28.4 °F 70% 29.72 in 10.0 mi East 31.1 mph 38.0 mph N/A   Scattered Clouds
10:14 PM 37.4 °F 26.9 °F 28.4 °F 70% 29.72 in 5.0 mi East 20.7 mph 32.2 mph N/A   Haze
10:34 PM 35.6 °F 24.5 °F 28.4 °F 75% 29.72 in 5.0 mi East 20.7 mph 31.1 mph N/A Snow Light Snow
10:54 PM 35.6 °F 25.2 °F 28.4 °F 75% 29.72 in 2.5 mi East 18.4 mph - N/A Snow Light Snow
11:14 PM 33.8 °F 23.2 °F 28.4 °F 81% 29.71 in 2.5 mi East 17.3 mph 25.3 mph N/A Snow Light Snow
11:34 PM 33.8 °F 22.8 °F 28.4 °F 81% 29.69 in 4.0 mi East 18.4 mph 21.9 mph N/A Snow Light Snow
11:54 PM 33.8 °F 22.5 °F 28.4 °F 81% 29.68 in 1.8 mi ENE 19.6 mph - N/A Snow Light Snow